Lid_Strength_Index
2 2 2 2 2 2 2 3 3 3 3 3 3 4 4 4 4 4 4 5 5 5 5 5 5 3 6 10 8 0 -1 -1 2 2 3 4 6 7 9 8 7 9 8 6 6 6 6
2 2 2 2 2 2 2 3 3 3 3 4 4 4 4 4 4 4 4 4 4 5 5 5 4 3 7 10 2 -0 1 2 2 3 4 4 5 5 7 7 8 7 7 7 6 6 6
1 2 2 2 2 2 3 3 3 3 3 3 4 4 4 4 4 4 4 4 4 4 5 4 4 4 8 9 0 1 3 3 1 3 4 3 3 5 6 7 5 7 9 8 7 6 7
2 2 2 2 2 2 3 3 3 3 3 3 4 4 4 4 4 4 4 4 3 4 4 4 3 6 11 6 1 4 5 4 1 1 2 3 2 5 6 5 7 9 9 12 8 7 6
2 2 2 2 2 2 3 3 3 3 3 3 4 4 4 4 4 4 4 4 3 2 3 2 7 9 10 1 4 3 4 4 2 3 2 2 3 6 6 9 11 10 13 12 10 6 7
2 2 2 2 3 3 3 3 3 3 3 3 3 4 4 5 4 4 4 4 4 3 2 2 3 10 8 6 4 3 3 3 4 4 5 6 7 9 9 10 15 13 13 11 12 8 8
2 2 2 2 3 3 3 3 3 3 3 3 3 4 4 4 4 5 7 7 8 9 6 10 10 9 7 5 4 4 2 3 4 6 10 7 11 12 10 9 9 10 11 12 10 8 9
2 2 2 2 3 3 3 3 3 3 3 3 4 4 4 4 4 5 8 8 7 6 9 6 6 8 8 8 9 8 2 6 7 9 8 10 12 9 8 8 9 10 11 12 10 8 9
2 2 2 3 3 3 3 3 3 3 4 4 4 4 4 5 5 8 9 7 6 6 10 8 6 6 7 7 9 8 4 5 7 9 9 11 9 7 9 9 10 10 12 11 11 9 9
2 3 3 3 3 3 3 3 3 3 4 4 4 4 4 5 7 8 8 7 6 6 12 10 8 6 6 7 9 6 5 5 8 9 8 9 8 8 10 10 10 11 8 9 10 11 14
2 3 3 3 3 3 4 4 4 4 4 4 4 4 5 6 9 7 6 6 7 8 16 8 9 6 8 8 8 8 7 7 9 9 9 10 10 10 11 10 8 10 7 9 10 11 14
2 3 3 3 3 4 4 4 4 4 4 4 4 5 5 6 8 6 5 7 7 12 14 10 9 10 10 10 9 7 8 7 8 10 10 9 7 8 9 8 8 7 9 10 13 14 16
2 3 3 3 4 4 4 4 4 4 4 5 5 6 7 5 8 7 7 8 12 15 9 10 12 11 11 11 10 11 9 12 12 13 14 12 11 10 9 12 10 9 13 16 16 17 15
2 2 3 3 4 4 4 4 4 4 4 5 6 7 6 5 7 6 8 11 15 11 12 10 10 11 11 10 11 10 12 12 10 13 15 15 14 11 9 11 12 13 14 16 18 18 16
3 3 3 3 4 4 4 4 4 4 5 6 7 7 7 6 6 7 10 14 13 12 10 11 12 12 12 11 11 11 12 12 11 12 14 14 13 10 9 10 11 13 15 14 16 17 17
2 2 3 4 4 4 4 4 4 4 5 6 8 7 6 5 6 9 12 13 12 10 9 10 13 12 13 11 11 12 12 10 10 9 11 12 14 12 9 10 10 12 12 15 17 18 18
2 3 3 3 4 4 4 4 4 5 5 7 7 7 5 6 7 9 12 13 10 9 9 10 12 13 13 13 12 13 12 11 10 10 10 11 13 12 11 12 13 12 14 15 16 17 19
3 3 4 4 3 3 4 4 5 5 6 7 9 10 6 8 10 13 13 13 10 10 9 10 11 12 13 12 13 12 13 12 10 11 12 11 14 15 13 10 11 11 14 16 17 17 18
3 4 4 4 4 3 3 4 5 5 5 8 9 9 6 8 13 13 12 11 11 11 12 11 12 11 12 13 14 12 12 10 10 10 13 12 15 17 15 13 11 12 13 13 16 18 18
3 3 4 4 3 3 3 3 5 5 5 8 9 11 9 10 12 12 12 13 13 10 11 11 12 12 13 13 14 14 13 11 10 10 5 9 15 15 16 15 14 14 13 13 14 16 17
3 4 4 4 4 3 3 3 4 5 6 7 9 11 11 13 10 12 13 13 12 12 11 11 12 12 14 16 14 15 14 13 11 9 12 14 17 15 15 13 14 13 13 13 15 14 15
4 4 4 4 4 3 3 3 4 4 5 7 10 10 10 11 11 12 12 13 12 12 12 12 12 11 13 15 14 15 14 15 14 13 15 16 18 17 17 14 15 14 13 13 13 13 13
4 5 5 4 4 4 3 3 3 4 6 8 8 8 9 11 12 12 12 11 10 11 10 10 10 12 12 12 11 11 12 12 13 15 16 16 17 18 19 16 15 16 15 14 12 10 12
5 5 5 5 5 4 4 4 3 4 5 8 8 8 10 12 11 11 9 9 9 10 11 9 10 12 11 10 11 12 13 14 14 14 14 16 17 18 19 18 20 15 9 8 10 10 9
5 6 6 5 5 5 4 4 4 4 4 9 8 8 11 13 11 9 9 9 10 10 10 10 9 10 11 12 14 16 15 14 13 12 14 15 17 18 18 19 16 12 10 10 12 12 8
6 6 6 6 6 5 5 5 4 4 4 8 8 7 9 11 13 8 10 10 12 12 11 10 9 10 11 14 15 17 18 16 15 13 13 13 15 15 17 17 17 12 9 7 8 14 8
6 6 6 6 6 6 6 5 5 5 4 6 8 7 8 11 10 10 11 12 10 11 12 11 9 11 12 15 16 16 16 13 15 15 15 15 15 15 15 16 13 10 7 7 14 13 7
5 5 6 6 6 6 6 6 6 5 5 6 8 7 8 11 10 8 7 9 9 10 12 11 12 12 14 15 15 15 15 14 15 14 14 15 15 16 15 18 17 8 9 12 10 8 7
5 5 5 6 6 6 6 6 6 6 5 6 10 8 7 10 9 8 6 6 7 8 10 11 12 12 12 14 14 14 14 14 15 16 13 14 12 13 12 13 10 8 9 8 8 9 8